Find Starlink 31341

NORAD ID: 59155 Int'l Des: 2024-044 Owner: SPXS Country: US Constellation: starlink operational
LEOCIRCULAR

リアルタイム位置

3D地球を読み込み中...

Starlink 31341について

説明を読み込み中...

次回通過

Passes for default location (London). Set your location on the main map for personalized predictions.

高度履歴

Loading altitude history...

軌道要素

1 59155U 24044D 26123.16398382 -.00000309 00000-0 -17037-5 0 9990
2 59155 43.0020 163.0989 0000919 244.2993 115.7764 15.27576578121855
Epoch: May 3, 2026 • Age: 10 hours

現在のステータス

高度 482.9 km
速度 7.63 km/s
衛星直下点 20.10°N, 120.13°E
打ち上げ日 Mar 4, 2024
運用期間 2.1 years
タイプ internet

技術仕様

分類 Payload
質量 730.00 kg
乾燥質量 700.00 kg
総質量 730.00 kg
長さ 0.30 m
直径 4.10 m
スパン 29.00 m
形状 Box + pan
製造者 SPXS
バスタイプ Starlink V2M
フェーズステータス In Orbit
所有者/国 SPXS/US

Most Searched